User: anonymous   Login
Location: Unspecified
(0.0000°N, 0.0000°E)
Time: 14:52:28
(UTC+00:00)
Language:

Himawari - Orbit

View from above orbital plane
View from above orbital plane
View from above satellite
View from above satellite

Ground track
Ground track

The orbit data is extracted from the following two-line orbital elements,

1 10143U 77065A   17351.61090840 -.00000071 +00000-0 +00000-0 0  9998
2 10143 013.1610 325.1468 0013634 171.4261 186.0161 00.99251113090419
Epoch (UTC): 17 December 2017 14:39:42
Eccentricity: 0.0013634
inclination: 13.1610°
perigee height: 36017 km
apogee height: 36132 km
right ascension of ascending node: 325.1468°
argument of perigee: 171.4261°
revolutions per day: 0.99251113
mean anomaly at epoch: 186.0161°
orbit number at epoch: 9041

The dashed part of the orbit path shows where the satellite is in the earth's shadow,  

DLR